contact:dominique.lefevre@mio.osupytheas.fr, maurice.libes@osupytheas.fr, didier.mallarino@osupytheas.fr
Project:EMSO http://www.emso-fr.org/EMSO-France
Depth: 2436.0 m
Title:EMSO Ligure Ouest : Data MII capteur CSTAR
DateTime,Latitude,Longitude,Instrument_Serial,Reference_Counts,Signal_Counts,Corrected_Signal_raw_counts,Calculated_Beam_c_inverse_meters,Internal_thermistor_counts
DateTime,Latitude,Longitude,Instrument_Serial,Reference_Counts,Signal_Counts,Corrected_Signal_raw_counts,Calculated_Beam_c_inverse_meters,Internal_thermistor_counts
2020-06-08T00:01:50,42.805,6.029,CST-1368DR,6221,8716,15148,0.122,551
2020-06-08T00:04:51,42.805,6.029,CST-1368DR,6221,8715,15146,0.122,550
2020-06-08T00:07:53,42.805,6.029,CST-1368DR,6221,8716,15148,0.122,551
2020-06-08T00:10:55,42.805,6.029,CST-1368DR,6221,8715,15147,0.122,550
2020-06-08T00:13:57,42.805,6.029,CST-1368DR,6221,8714,15144,0.123,551
2020-06-08T00:16:58,42.805,6.029,CST-1368DR,6221,8716,15147,0.122,551
2020-06-08T00:20:00,42.805,6.029,CST-1368DR,6221,8712,15141,0.124,550
2020-06-08T00:23:02,42.805,6.029,CST-1368DR,6221,8713,15143,0.123,551
2020-06-08T00:26:03,42.805,6.029,CST-1368DR,6221,8716,15147,0.122,551
2020-06-08T00:29:05,42.805,6.029,CST-1368DR,6221,8715,15145,0.123,551
2020-06-08T00:32:07,42.805,6.029,CST-1368DR,6221,8716,15147,0.122,551
2020-06-08T00:35:08,42.805,6.029,CST-1368DR,6221,8711,15140,0.124,551
2020-06-08T00:38:10,42.805,6.029,CST-1368DR,6221,8715,15147,0.122,551
2020-06-08T00:41:12,42.805,6.029,CST-1368DR,6221,8714,15144,0.123,551
2020-06-08T00:44:14,42.805,6.029,CST-1368DR,6221,8715,15146,0.122,551
2020-06-08T00:47:15,42.805,6.029,CST-1368DR,6221,8715,15145,0.123,551
2020-06-08T00:50:17,42.805,6.029,CST-1368DR,6221,8715,15147,0.122,550
2020-06-08T00:53:19,42.805,6.029,CST-1368DR,6221,8716,15148,0.122,550
2020-06-08T00:56:21,42.805,6.029,CST-1368DR,6221,8714,15145,0.123,551
2020-06-08T00:59:22,42.805,6.029,CST-1368DR,6221,8715,15147,0.122,550
2020-06-08T01:02:24,42.805,6.029,CST-1368DR,6221,8712,15141,0.124,551
2020-06-08T01:05:26,42.805,6.029,CST-1368DR,6221,8713,15143,0.123,551
2020-06-08T01:08:27,42.805,6.029,CST-1368DR,6221,8716,15147,0.122,551
2020-06-08T01:11:29,42.805,6.029,CST-1368DR,6221,8714,15145,0.123,551
2020-06-08T01:14:31,42.805,6.029,CST-1368DR,6221,8716,15147,0.122,550
2020-06-08T01:17:32,42.805,6.029,CST-1368DR,6221,8713,15143,0.123,550
2020-06-08T01:20:34,42.805,6.029,CST-1368DR,6222,8715,15144,0.123,551
2020-06-08T01:23:36,42.805,6.029,CST-1368DR,6221,8717,15150,0.121,551
2020-06-08T01:26:38,42.805,6.029,CST-1368DR,6221,8713,15143,0.123,551
2020-06-08T01:29:40,42.805,6.029,CST-1368DR,6221,8713,15143,0.123,551
2020-06-08T01:32:41,42.805,6.029,CST-1368DR,6221,8714,15145,0.123,551
2020-06-08T01:35:43,42.805,6.029,CST-1368DR,6221,8714,15145,0.123,551
2020-06-08T01:38:45,42.805,6.029,CST-1368DR,6221,8715,15145,0.123,551
2020-06-08T01:41:46,42.805,6.029,CST-1368DR,6221,8716,15147,0.122,551
2020-06-08T01:44:48,42.805,6.029,CST-1368DR,6221,8715,15146,0.122,551
2020-06-08T01:47:50,42.805,6.029,CST-1368DR,6221,8715,15146,0.122,551
2020-06-08T01:50:52,42.805,6.029,CST-1368DR,6221,8714,15144,0.123,550
2020-06-08T01:53:53,42.805,6.029,CST-1368DR,6221,8715,15145,0.123,551
2020-06-08T01:56:55,42.805,6.029,CST-1368DR,6221,8716,15148,0.122,551
2020-06-08T01:59:57,42.805,6.029,CST-1368DR,6221,8716,15148,0.122,551
2020-06-08T02:02:58,42.805,6.029,CST-1368DR,6221,8716,15147,0.122,551
2020-06-08T02:06:00,42.805,6.029,CST-1368DR,6221,8715,15147,0.122,551
2020-06-08T02:09:02,42.805,6.029,CST-1368DR,6221,8715,15145,0.123,551
2020-06-08T02:12:03,42.805,6.029,CST-1368DR,6221,8715,15145,0.123,550
2020-06-08T02:15:05,42.805,6.029,CST-1368DR,6221,8716,15147,0.122,551
2020-06-08T02:18:07,42.805,6.029,CST-1368DR,6221,8716,15147,0.122,551
2020-06-08T02:21:08,42.805,6.029,CST-1368DR,6221,8716,15147,0.122,551
2020-06-08T02:24:10,42.805,6.029,CST-1368DR,6221,8715,15146,0.122,551
2020-06-08T02:27:12,42.805,6.029,CST-1368DR,6221,8715,15146,0.122,551
2020-06-08T02:30:13,42.805,6.029,CST-1368DR,6221,8713,15142,0.123,551
2020-06-08T02:33:15,42.805,6.029,CST-1368DR,6221,8715,15146,0.122,551
2020-06-08T02:36:17,42.805,6.029,CST-1368DR,6221,8713,15143,0.123,551
2020-06-08T02:39:19,42.805,6.029,CST-1368DR,6221,8715,15146,0.122,551
2020-06-08T02:42:20,42.805,6.029,CST-1368DR,6221,8715,15145,0.123,551
2020-06-08T02:45:22,42.805,6.029,CST-1368DR,6221,8713,15142,0.123,551
2020-06-08T02:48:24,42.805,6.029,CST-1368DR,6221,8715,15146,0.122,551
2020-06-08T02:51:25,42.805,6.029,CST-1368DR,6221,8709,15136,0.125,551
2020-06-08T02:54:27,42.805,6.029,CST-1368DR,6221,8716,15147,0.122,551
2020-06-08T02:57:29,42.805,6.029,CST-1368DR,6221,8715,15147,0.122,551
2020-06-08T03:00:30,42.805,6.029,CST-1368DR,6221,8715,15147,0.122,551
2020-06-08T03:03:32,42.805,6.029,CST-1368DR,6221,8715,15146,0.122,550
2020-06-08T03:06:34,42.805,6.029,CST-1368DR,6221,8713,15143,0.123,551
2020-06-08T03:09:35,42.805,6.029,CST-1368DR,6221,8715,15146,0.122,551
2020-06-08T03:12:37,42.805,6.029,CST-1368DR,6221,8715,15147,0.122,551
2020-06-08T03:15:39,42.805,6.029,CST-1368DR,6221,8715,15147,0.122,551
2020-06-08T03:18:40,42.805,6.029,CST-1368DR,6221,8713,15143,0.123,551
2020-06-08T03:21:42,42.805,6.029,CST-1368DR,6221,8715,15147,0.122,550
2020-06-08T03:24:44,42.805,6.029,CST-1368DR,6221,8716,15147,0.122,551
2020-06-08T03:27:45,42.805,6.029,CST-1368DR,6221,8715,15146,0.122,551
2020-06-08T03:30:47,42.805,6.029,CST-1368DR,6221,8714,15145,0.123,551
2020-06-08T03:33:49,42.805,6.029,CST-1368DR,6221,8715,15147,0.122,551
2020-06-08T03:36:50,42.805,6.029,CST-1368DR,6221,8714,15145,0.123,551
2020-06-08T03:39:52,42.805,6.029,CST-1368DR,6221,8715,15146,0.122,551
2020-06-08T03:42:54,42.805,6.029,CST-1368DR,6221,8714,15145,0.123,551
2020-06-08T03:45:55,42.805,6.029,CST-1368DR,6221,8712,15141,0.124,551
2020-06-08T03:48:57,42.805,6.029,CST-1368DR,6221,8715,15146,0.122,551
2020-06-08T03:51:59,42.805,6.029,CST-1368DR,6221,8715,15146,0.122,551
2020-06-08T03:55:01,42.805,6.029,CST-1368DR,6221,8715,15145,0.123,551
2020-06-08T03:58:02,42.805,6.029,CST-1368DR,6221,8715,15146,0.122,551
2020-06-08T04:01:04,42.805,6.029,CST-1368DR,6221,8714,15144,0.123,551
2020-06-08T04:04:06,42.805,6.029,CST-1368DR,6221,8712,15141,0.124,551
2020-06-08T04:07:07,42.805,6.029,CST-1368DR,6221,8715,15145,0.123,551
2020-06-08T04:10:09,42.805,6.029,CST-1368DR,6221,8713,15142,0.123,550
2020-06-08T04:13:11,42.805,6.029,CST-1368DR,6221,8713,15142,0.123,551
2020-06-08T04:16:12,42.805,6.029,CST-1368DR,6221,8715,15146,0.122,551
2020-06-08T04:19:14,42.805,6.029,CST-1368DR,6221,8715,15145,0.123,550
2020-06-08T04:22:16,42.805,6.029,CST-1368DR,6221,8716,15147,0.122,551
2020-06-08T04:25:17,42.805,6.029,CST-1368DR,6221,8715,15147,0.122,551
2020-06-08T04:28:19,42.805,6.029,CST-1368DR,6221,8715,15146,0.122,551
2020-06-08T04:31:21,42.805,6.029,CST-1368DR,6221,8715,15147,0.122,551
2020-06-08T04:34:22,42.805,6.029,CST-1368DR,6221,8715,15146,0.122,551
2020-06-08T04:37:24,42.805,6.029,CST-1368DR,6221,8715,15145,0.123,551
2020-06-08T04:40:26,42.805,6.029,CST-1368DR,6221,8716,15148,0.122,551
2020-06-08T04:43:27,42.805,6.029,CST-1368DR,6221,8715,15147,0.122,551
2020-06-08T04:46:29,42.805,6.029,CST-1368DR,6221,8712,15140,0.124,551
2020-06-08T04:49:31,42.805,6.029,CST-1368DR,6221,8711,15139,0.124,551
2020-06-08T04:52:32,42.805,6.029,CST-1368DR,6221,8714,15145,0.123,551
2020-06-08T04:55:34,42.805,6.029,CST-1368DR,6221,8715,15145,0.123,551
2020-06-08T04:58:36,42.805,6.029,CST-1368DR,6221,8713,15143,0.123,551
2020-06-08T05:01:37,42.805,6.029,CST-1368DR,6221,8715,15147,0.122,551
2020-06-08T05:04:40,42.805,6.029,CST-1368DR,6221,8715,15146,0.122,551
2020-06-08T05:07:41,42.805,6.029,CST-1368DR,6221,8717,15149,0.121,551
2020-06-08T05:10:43,42.805,6.029,CST-1368DR,6221,8716,15147,0.122,551
2020-06-08T05:13:45,42.805,6.029,CST-1368DR,6221,8715,15147,0.122,551
2020-06-08T05:16:47,42.805,6.029,CST-1368DR,6221,8713,15143,0.123,551
2020-06-08T05:19:49,42.805,6.029,CST-1368DR,6221,8715,15146,0.122,551
2020-06-08T05:22:50,42.805,6.029,CST-1368DR,6221,8713,15142,0.123,551
2020-06-08T05:25:52,42.805,6.029,CST-1368DR,6221,8714,15145,0.123,551
2020-06-08T05:28:54,42.805,6.029,CST-1368DR,6221,8715,15146,0.122,550
2020-06-08T05:31:56,42.805,6.029,CST-1368DR,6221,8713,15143,0.123,550
2020-06-08T05:34:57,42.805,6.029,CST-1368DR,6221,8713,15143,0.123,551
2020-06-08T05:37:59,42.805,6.029,CST-1368DR,6221,8716,15147,0.122,551
2020-06-08T05:41:01,42.805,6.029,CST-1368DR,6221,8715,15146,0.122,551
2020-06-08T05:44:02,42.805,6.029,CST-1368DR,6221,8715,15146,0.122,551
2020-06-08T05:47:04,42.805,6.029,CST-1368DR,6221,8715,15146,0.122,551
2020-06-08T05:50:06,42.805,6.029,CST-1368DR,6221,8713,15143,0.123,551
2020-06-08T05:53:08,42.805,6.029,CST-1368DR,6221,8713,15142,0.123,551
2020-06-08T05:56:09,42.805,6.029,CST-1368DR,6221,8714,15144,0.123,551
2020-06-08T05:59:11,42.805,6.029,CST-1368DR,6221,8715,15146,0.122,551
2020-06-08T06:02:13,42.805,6.029,CST-1368DR,6221,8715,15145,0.123,551
2020-06-08T06:05:14,42.805,6.029,CST-1368DR,6221,8714,15144,0.123,551
2020-06-08T06:08:16,42.805,6.029,CST-1368DR,6221,8716,15147,0.122,551
2020-06-08T06:11:18,42.805,6.029,CST-1368DR,6221,8715,15146,0.122,551
2020-06-08T06:14:19,42.805,6.029,CST-1368DR,6221,8715,15146,0.122,551
2020-06-08T06:17:21,42.805,6.029,CST-1368DR,6221,8714,15144,0.123,551
2020-06-08T06:20:23,42.805,6.029,CST-1368DR,6221,8715,15146,0.122,551
2020-06-08T06:23:24,42.805,6.029,CST-1368DR,6221,8714,15145,0.123,550
2020-06-08T06:26:26,42.805,6.029,CST-1368DR,6221,8714,15144,0.123,551
2020-06-08T06:29:28,42.805,6.029,CST-1368DR,6221,8714,15145,0.123,551
2020-06-08T06:32:29,42.805,6.029,CST-1368DR,6221,8714,15144,0.123,551
2020-06-08T06:35:31,42.805,6.029,CST-1368DR,6221,8716,15147,0.122,551
2020-06-08T06:38:33,42.805,6.029,CST-1368DR,6221,8715,15146,0.122,551
2020-06-08T06:41:34,42.805,6.029,CST-1368DR,6221,8715,15147,0.122,551
2020-06-08T06:44:36,42.805,6.029,CST-1368DR,6221,8713,15143,0.123,551
2020-06-08T06:47:38,42.805,6.029,CST-1368DR,6221,8715,15147,0.122,551
2020-06-08T06:50:40,42.805,6.029,CST-1368DR,6221,8714,15145,0.123,551
2020-06-08T06:53:41,42.805,6.029,CST-1368DR,6221,8714,15144,0.123,551
2020-06-08T06:56:43,42.805,6.029,CST-1368DR,6221,8714,15144,0.123,551
2020-06-08T06:59:45,42.805,6.029,CST-1368DR,6221,8714,15145,0.123,551
2020-06-08T07:02:46,42.805,6.029,CST-1368DR,6221,8711,15139,0.124,551
2020-06-08T07:05:48,42.805,6.029,CST-1368DR,6221,8713,15142,0.123,551
2020-06-08T07:08:50,42.805,6.029,CST-1368DR,6221,8706,15131,0.126,551
2020-06-08T07:11:51,42.805,6.029,CST-1368DR,6221,8715,15145,0.123,551
2020-06-08T07:14:53,42.805,6.029,CST-1368DR,6221,8714,15144,0.123,551
2020-06-08T07:17:55,42.805,6.029,CST-1368DR,6221,8714,15145,0.123,551
2020-06-08T07:20:57,42.805,6.029,CST-1368DR,6221,8712,15141,0.124,551
2020-06-08T07:23:58,42.805,6.029,CST-1368DR,6221,8714,15144,0.123,551
2020-06-08T07:27:00,42.805,6.029,CST-1368DR,6220,8715,15148,0.122,551
2020-06-08T07:30:02,42.805,6.029,CST-1368DR,6220,8713,15145,0.123,551
2020-06-08T07:33:03,42.805,6.029,CST-1368DR,6220,8713,15145,0.123,551
2020-06-08T07:36:05,42.805,6.029,CST-1368DR,6220,8714,15147,0.122,551
2020-06-08T07:39:07,42.805,6.029,CST-1368DR,6220,8713,15145,0.123,550
2020-06-08T07:42:08,42.805,6.029,CST-1368DR,6220,8714,15146,0.122,551
2020-06-08T07:45:10,42.805,6.029,CST-1368DR,6220,8714,15146,0.122,551
2020-06-08T07:48:12,42.805,6.029,CST-1368DR,6220,8714,15147,0.122,551
2020-06-08T07:51:13,42.805,6.029,CST-1368DR,6220,8715,15148,0.122,550
2020-06-08T07:54:15,42.805,6.029,CST-1368DR,6220,8716,15149,0.121,551
2020-06-08T07:57:17,42.805,6.029,CST-1368DR,6220,8715,15148,0.122,551
2020-06-08T08:00:19,42.805,6.029,CST-1368DR,6220,8715,15148,0.122,551
2020-06-08T08:03:20,42.805,6.029,CST-1368DR,6220,8714,15147,0.122,551
2020-06-08T08:06:22,42.805,6.029,CST-1368DR,6220,8716,15149,0.121,551
2020-06-08T08:09:24,42.805,6.029,CST-1368DR,6220,8715,15148,0.122,551
2020-06-08T08:12:25,42.805,6.029,CST-1368DR,6220,8714,15147,0.122,551
2020-06-08T08:15:27,42.805,6.029,CST-1368DR,6220,8715,15148,0.122,550
2020-06-08T08:18:29,42.805,6.029,CST-1368DR,6220,8715,15148,0.122,551
2020-06-08T08:21:30,42.805,6.029,CST-1368DR,6220,8715,15148,0.122,551
2020-06-08T08:24:32,42.805,6.029,CST-1368DR,6220,8714,15147,0.122,551
2020-06-08T08:27:34,42.805,6.029,CST-1368DR,6220,8712,15143,0.123,551
2020-06-08T08:30:35,42.805,6.029,CST-1368DR,6220,8715,15149,0.121,551
2020-06-08T08:33:37,42.805,6.029,CST-1368DR,6220,8714,15147,0.122,551
2020-06-08T08:36:39,42.805,6.029,CST-1368DR,6220,8712,15144,0.123,550
2020-06-08T08:39:41,42.805,6.029,CST-1368DR,6220,8712,15143,0.123,551
2020-06-08T08:42:42,42.805,6.029,CST-1368DR,6220,8711,15141,0.124,551
2020-06-08T08:45:44,42.805,6.029,CST-1368DR,6220,8713,15145,0.123,551
2020-06-08T08:48:46,42.805,6.029,CST-1368DR,6220,8711,15142,0.123,551
2020-06-08T08:51:48,42.805,6.029,CST-1368DR,6220,8714,15147,0.122,551
2020-06-08T08:54:49,42.805,6.029,CST-1368DR,6220,8713,15145,0.123,551
2020-06-08T08:57:51,42.805,6.029,CST-1368DR,6220,8715,15148,0.122,551
2020-06-08T09:00:53,42.805,6.029,CST-1368DR,6220,8707,15135,0.125,551
2020-06-08T09:03:54,42.805,6.029,CST-1368DR,6220,8714,15146,0.122,551
2020-06-08T09:06:56,42.805,6.029,CST-1368DR,6220,8715,15148,0.122,551
2020-06-08T09:09:58,42.805,6.029,CST-1368DR,6220,8715,15148,0.122,551
2020-06-08T09:12:59,42.805,6.029,CST-1368DR,6220,8714,15147,0.122,551
2020-06-08T09:16:01,42.805,6.029,CST-1368DR,6220,8711,15142,0.123,551
2020-06-08T09:19:03,42.805,6.029,CST-1368DR,6220,8713,15144,0.123,551
2020-06-08T09:22:04,42.805,6.029,CST-1368DR,6220,8713,15145,0.123,551
2020-06-08T09:25:06,42.805,6.029,CST-1368DR,6220,8712,15143,0.123,551
2020-06-08T09:28:08,42.805,6.029,CST-1368DR,6220,8712,15143,0.123,550
2020-06-08T09:31:09,42.805,6.029,CST-1368DR,6220,8713,15145,0.123,551
2020-06-08T09:34:11,42.805,6.029,CST-1368DR,6220,8713,15145,0.123,551
2020-06-08T09:37:13,42.805,6.029,CST-1368DR,6220,8712,15143,0.123,551
2020-06-08T09:40:14,42.805,6.029,CST-1368DR,6220,8714,15146,0.122,551
2020-06-08T09:43:16,42.805,6.029,CST-1368DR,6220,8714,15147,0.122,551
2020-06-08T09:46:18,42.805,6.029,CST-1368DR,6220,8713,15145,0.123,551
2020-06-08T09:49:20,42.805,6.029,CST-1368DR,6220,8711,15141,0.124,551
2020-06-08T09:52:21,42.805,6.029,CST-1368DR,6220,8713,15144,0.123,551
2020-06-08T09:55:23,42.805,6.029,CST-1368DR,6220,8713,15145,0.123,551
2020-06-08T09:58:25,42.805,6.029,CST-1368DR,6220,8713,15145,0.123,551
2020-06-08T10:01:26,42.805,6.029,CST-1368DR,6220,8713,15145,0.123,551
2020-06-08T10:04:28,42.805,6.029,CST-1368DR,6220,8712,15142,0.123,551
2020-06-08T10:07:30,42.805,6.029,CST-1368DR,6220,8713,15145,0.123,551
2020-06-08T10:10:31,42.805,6.029,CST-1368DR,6220,8713,15145,0.123,551
2020-06-08T10:13:34,42.805,6.029,CST-1368DR,6220,8714,15147,0.122,551
2020-06-08T10:16:35,42.805,6.029,CST-1368DR,6220,8714,15147,0.122,551
2020-06-08T10:19:37,42.805,6.029,CST-1368DR,6220,8713,15145,0.123,551
2020-06-08T10:22:39,42.805,6.029,CST-1368DR,6220,8714,15147,0.122,551
2020-06-08T10:25:40,42.805,6.029,CST-1368DR,6220,8714,15146,0.122,551
2020-06-08T10:28:42,42.805,6.029,CST-1368DR,6220,8714,15147,0.122,550
2020-06-08T10:31:44,42.805,6.029,CST-1368DR,6220,8712,15143,0.123,551
2020-06-08T10:34:45,42.805,6.029,CST-1368DR,6220,8714,15146,0.122,551
2020-06-08T10:37:47,42.805,6.029,CST-1368DR,6220,8713,15145,0.123,551
2020-06-08T10:40:49,42.805,6.029,CST-1368DR,6220,8713,15145,0.123,551
2020-06-08T10:43:50,42.805,6.029,CST-1368DR,6220,8713,15144,0.123,551
2020-06-08T10:46:52,42.805,6.029,CST-1368DR,6220,8712,15143,0.123,551
2020-06-08T10:49:54,42.805,6.029,CST-1368DR,6220,8713,15144,0.123,551
2020-06-08T10:52:55,42.805,6.029,CST-1368DR,6220,8711,15141,0.124,551
2020-06-08T10:55:57,42.805,6.029,CST-1368DR,6220,8710,15139,0.124,551
2020-06-08T10:58:59,42.805,6.029,CST-1368DR,6220,8707,15135,0.125,551
2020-06-08T11:02:01,42.805,6.029,CST-1368DR,6220,8711,15141,0.124,550
2020-06-08T11:05:02,42.805,6.029,CST-1368DR,6220,8712,15143,0.123,550
2020-06-08T11:08:04,42.805,6.029,CST-1368DR,6220,8713,15145,0.123,551
2020-06-08T11:11:06,42.805,6.029,CST-1368DR,6220,8713,15145,0.123,550
2020-06-08T11:14:07,42.805,6.029,CST-1368DR,6220,8713,15144,0.123,551
2020-06-08T11:17:09,42.805,6.029,CST-1368DR,6220,8712,15144,0.123,551
2020-06-08T11:20:11,42.805,6.029,CST-1368DR,6220,8709,15138,0.124,551
2020-06-08T11:23:12,42.805,6.029,CST-1368DR,6220,8712,15142,0.123,551
2020-06-08T11:26:14,42.805,6.029,CST-1368DR,6220,8713,15145,0.123,551
2020-06-08T11:29:16,42.805,6.029,CST-1368DR,6220,8711,15141,0.124,551
2020-06-08T11:32:17,42.805,6.029,CST-1368DR,6220,8713,15144,0.123,551
2020-06-08T11:35:19,42.805,6.029,CST-1368DR,6220,8713,15144,0.123,551
2020-06-08T11:38:21,42.805,6.029,CST-1368DR,6219,8712,15146,0.122,551
2020-06-08T11:41:23,42.805,6.029,CST-1368DR,6219,8712,15146,0.122,551
2020-06-08T11:44:24,42.805,6.029,CST-1368DR,6219,8711,15144,0.123,551
2020-06-08T11:47:26,42.805,6.029,CST-1368DR,6220,8709,15138,0.124,551
2020-06-08T11:50:28,42.805,6.029,CST-1368DR,6220,8708,15136,0.125,551
2020-06-08T11:53:29,42.805,6.029,CST-1368DR,6219,8709,15141,0.124,551
2020-06-08T11:56:31,42.805,6.029,CST-1368DR,6219,8705,15133,0.126,551
2020-06-08T11:59:33,42.805,6.029,CST-1368DR,6219,8712,15145,0.123,551
2020-06-08T12:02:34,42.805,6.029,CST-1368DR,6219,8709,15139,0.124,550
2020-06-08T12:05:36,42.805,6.029,CST-1368DR,6220,8713,15145,0.123,551
2020-06-08T12:08:38,42.805,6.029,CST-1368DR,6219,8712,15146,0.122,551
2020-06-08T12:11:39,42.805,6.029,CST-1368DR,6219,8700,15124,0.128,550
2020-06-08T12:14:41,42.805,6.029,CST-1368DR,6219,8712,15145,0.123,551
2020-06-08T12:17:43,42.805,6.029,CST-1368DR,6219,8711,15144,0.123,551
2020-06-08T12:20:44,42.805,6.029,CST-1368DR,6219,8713,15146,0.122,551
2020-06-08T12:23:46,42.805,6.029,CST-1368DR,6219,8711,15144,0.123,551
2020-06-08T12:26:48,42.805,6.029,CST-1368DR,6219,8712,15145,0.123,551
2020-06-08T12:29:50,42.805,6.029,CST-1368DR,6219,8711,15144,0.123,551
2020-06-08T12:32:51,42.805,6.029,CST-1368DR,6219,8711,15143,0.123,551
2020-06-08T12:35:53,42.805,6.029,CST-1368DR,6219,8712,15146,0.122,551
2020-06-08T12:38:55,42.805,6.029,CST-1368DR,6219,8711,15144,0.123,551
2020-06-08T12:41:56,42.805,6.029,CST-1368DR,6219,8713,15147,0.122,551
2020-06-08T12:44:58,42.805,6.029,CST-1368DR,6219,8712,15146,0.122,551
2020-06-08T12:48:00,42.805,6.029,CST-1368DR,6219,8712,15145,0.123,551
2020-06-08T12:51:01,42.805,6.029,CST-1368DR,6219,8711,15143,0.123,551
2020-06-08T12:54:03,42.805,6.029,CST-1368DR,6219,8711,15144,0.123,551
2020-06-08T12:57:05,42.805,6.029,CST-1368DR,6219,8714,15149,0.121,551
2020-06-08T13:00:06,42.805,6.029,CST-1368DR,6219,8711,15144,0.123,551
2020-06-08T13:03:08,42.805,6.029,CST-1368DR,6219,8710,15141,0.124,551
2020-06-08T13:06:10,42.805,6.029,CST-1368DR,6219,8712,15146,0.122,551
2020-06-08T13:09:11,42.805,6.029,CST-1368DR,6219,8712,15146,0.122,551
2020-06-08T13:12:13,42.805,6.029,CST-1368DR,6219,8712,15146,0.122,551
2020-06-08T13:15:15,42.805,6.029,CST-1368DR,6219,8710,15142,0.123,551
2020-06-08T13:18:17,42.805,6.029,CST-1368DR,6219,8710,15141,0.124,551
2020-06-08T13:21:18,42.805,6.029,CST-1368DR,6219,8710,15141,0.124,551
2020-06-08T13:24:20,42.805,6.029,CST-1368DR,6219,8708,15138,0.124,551
2020-06-08T13:27:22,42.805,6.029,CST-1368DR,6219,8712,15145,0.123,551
2020-06-08T13:30:23,42.805,6.029,CST-1368DR,6219,8711,15143,0.123,551
2020-06-08T13:33:25,42.805,6.029,CST-1368DR,6219,8709,15140,0.124,551
2020-06-08T13:36:27,42.805,6.029,CST-1368DR,6219,8710,15142,0.123,551
2020-06-08T13:39:28,42.805,6.029,CST-1368DR,6219,8710,15141,0.124,551
2020-06-08T13:42:30,42.805,6.029,CST-1368DR,6219,8710,15142,0.123,551
2020-06-08T13:45:32,42.805,6.029,CST-1368DR,6219,8710,15142,0.123,551
2020-06-08T13:48:34,42.805,6.029,CST-1368DR,6219,8709,15141,0.124,551
2020-06-08T13:51:35,42.805,6.029,CST-1368DR,6219,8712,15145,0.123,551
2020-06-08T13:54:37,42.805,6.029,CST-1368DR,6219,8710,15142,0.123,551
2020-06-08T13:57:39,42.805,6.029,CST-1368DR,6219,8712,15146,0.122,551
2020-06-08T14:00:40,42.805,6.029,CST-1368DR,6219,8712,15145,0.123,551
2020-06-08T14:03:42,42.805,6.029,CST-1368DR,6219,8711,15143,0.123,551
2020-06-08T14:06:44,42.805,6.029,CST-1368DR,6219,8712,15145,0.123,551
2020-06-08T14:09:46,42.805,6.029,CST-1368DR,6219,8711,15143,0.123,551
2020-06-08T14:12:47,42.805,6.029,CST-1368DR,6219,8711,15143,0.123,551
2020-06-08T14:15:49,42.805,6.029,CST-1368DR,6219,8711,15144,0.123,550
2020-06-08T14:18:51,42.805,6.029,CST-1368DR,6219,8712,15146,0.122,551
2020-06-08T14:21:52,42.805,6.029,CST-1368DR,6219,8712,15145,0.123,551
2020-06-08T14:24:54,42.805,6.029,CST-1368DR,6219,8710,15141,0.124,551
2020-06-08T14:27:56,42.805,6.029,CST-1368DR,6219,8711,15144,0.123,551
2020-06-08T14:30:57,42.805,6.029,CST-1368DR,6219,8711,15144,0.123,551
2020-06-08T14:33:59,42.805,6.029,CST-1368DR,6219,8710,15141,0.124,551
2020-06-08T14:37:01,42.805,6.029,CST-1368DR,6219,8710,15142,0.123,551
2020-06-08T14:40:02,42.805,6.029,CST-1368DR,6219,8712,15145,0.123,551
2020-06-08T14:43:04,42.805,6.029,CST-1368DR,6219,8712,15146,0.122,551
2020-06-08T14:46:06,42.805,6.029,CST-1368DR,6219,8710,15142,0.123,551
2020-06-08T14:49:08,42.805,6.029,CST-1368DR,6219,8710,15142,0.123,551
2020-06-08T14:52:09,42.805,6.029,CST-1368DR,6219,8710,15141,0.124,551
2020-06-08T14:55:11,42.805,6.029,CST-1368DR,6219,8711,15143,0.123,551
2020-06-08T14:58:13,42.805,6.029,CST-1368DR,6219,8708,15138,0.124,551
2020-06-08T15:01:14,42.805,6.029,CST-1368DR,6219,8710,15141,0.124,551
2020-06-08T15:04:16,42.805,6.029,CST-1368DR,6219,8709,15139,0.124,551
2020-06-08T15:07:18,42.805,6.029,CST-1368DR,6219,8708,15138,0.124,551
2020-06-08T15:10:19,42.805,6.029,CST-1368DR,6219,8705,15133,0.126,551
2020-06-08T15:13:21,42.805,6.029,CST-1368DR,6219,8711,15143,0.123,551
2020-06-08T15:16:23,42.805,6.029,CST-1368DR,6219,8711,15143,0.123,551
2020-06-08T15:19:24,42.805,6.029,CST-1368DR,6219,8711,15143,0.123,550
2020-06-08T15:22:26,42.805,6.029,CST-1368DR,6219,8709,15140,0.124,551
2020-06-08T15:25:28,42.805,6.029,CST-1368DR,6219,8710,15142,0.123,551
2020-06-08T15:28:29,42.805,6.029,CST-1368DR,6219,8710,15141,0.124,551
2020-06-08T15:31:31,42.805,6.029,CST-1368DR,6219,8710,15142,0.123,551
2020-06-08T15:34:33,42.805,6.029,CST-1368DR,6219,8710,15142,0.123,551
2020-06-08T15:37:35,42.805,6.029,CST-1368DR,6219,8709,15141,0.124,551
2020-06-08T15:40:37,42.805,6.029,CST-1368DR,6219,8710,15142,0.123,551
2020-06-08T15:43:39,42.805,6.029,CST-1368DR,6219,8705,15133,0.126,551
2020-06-08T15:46:40,42.805,6.029,CST-1368DR,6219,8709,15141,0.124,551
2020-06-08T15:49:42,42.805,6.029,CST-1368DR,6219,8709,15139,0.124,551
2020-06-08T15:52:44,42.805,6.029,CST-1368DR,6219,8709,15140,0.124,551
2020-06-08T15:55:45,42.805,6.029,CST-1368DR,6219,8709,15140,0.124,551
2020-06-08T15:58:47,42.805,6.029,CST-1368DR,6219,8711,15143,0.123,551
2020-06-08T16:01:49,42.805,6.029,CST-1368DR,6219,8703,15130,0.126,551
2020-06-08T16:04:50,42.805,6.029,CST-1368DR,6219,8709,15140,0.124,551
2020-06-08T16:07:52,42.805,6.029,CST-1368DR,6219,8705,15134,0.125,551
2020-06-08T16:10:54,42.805,6.029,CST-1368DR,6219,8708,15138,0.124,551
2020-06-08T16:13:55,42.805,6.029,CST-1368DR,6219,8709,15140,0.124,551
2020-06-08T16:16:57,42.805,6.029,CST-1368DR,6219,8708,15139,0.124,551
2020-06-08T16:19:59,42.805,6.029,CST-1368DR,6219,8706,15134,0.125,551
2020-06-08T16:23:00,42.805,6.029,CST-1368DR,6219,8709,15140,0.124,551
2020-06-08T16:26:02,42.805,6.029,CST-1368DR,6219,8709,15140,0.124,551
2020-06-08T16:29:04,42.805,6.029,CST-1368DR,6219,8708,15139,0.124,551
2020-06-08T16:32:05,42.805,6.029,CST-1368DR,6219,8710,15141,0.124,551
2020-06-08T16:35:07,42.805,6.029,CST-1368DR,6219,8708,15138,0.124,551
2020-06-08T16:38:09,42.805,6.029,CST-1368DR,6219,8710,15142,0.123,551
2020-06-08T16:41:10,42.805,6.029,CST-1368DR,6219,8709,15141,0.124,550
2020-06-08T16:44:12,42.805,6.029,CST-1368DR,6219,8709,15140,0.124,551
2020-06-08T16:47:14,42.805,6.029,CST-1368DR,6219,8707,15136,0.125,551
2020-06-08T16:50:15,42.805,6.029,CST-1368DR,6219,8710,15141,0.124,551
2020-06-08T16:53:17,42.805,6.029,CST-1368DR,6219,8708,15138,0.124,551